GLOBALSTAR M075 [+]

Last updated on July 6, 2021, 3:36 p.m. UTC

1 37192U 10054E   21186.76980799 -.00000088  00000-0  86393-4 0  9995
2 37192  51.9937 253.3865 0000275 125.6726  35.2697 12.62266329493853
UTC
Height (km)
Latitude
Longitude
Inclination
Orbital Period
UTC large
Height (km)
Speed (km/s)
/
Latitude / Longitude
Inclination (degrees)
Orbital Period (minutes)
Azimuth
Elevation
Range (km)
Doppler Factor
iOS Compass Heading
iOS Angle